When you browse on this site, cookies collect data to enhance your experience and personalize the content and advertising you see.
Visit our Privacy Policy to learn more. By continuing to use the site, you agree to this use of cookies and data.
  • In Slovakia
  • List of Countries
  • For 7 days
  • Water Temperature
  • Satellite Maps
  • Weather Map
  • Weather Widgets
  • user-avatar
    Login

    Hourly Weather Goleszyn

    Today, 18 February, Monday

    Time Temperature Precipitation Wind Pressure Humidity
    00:00 +5°C° 0 mm 0 mps 757 mmHg 90%
    01:00 +5°C° 0 mm 0 mps 756 mmHg 89%
    02:00 +5°C° 0 mm 0 mps 756 mmHg 90%
    03:00 +6°C° 0 mm 1 mps 756 mmHg 90%
    04:00 +6°C° 0 mm 1 mps 756 mmHg 91%
    05:00 +6°C° 0 mm 1 mps 756 mmHg 91%
    06:00 +6°C° 0 mm 1 mps 756 mmHg 92%
    07:00 +5°C° 0 mm 1 mps 756 mmHg 92%
    08:00 +6°C° 0 mm 1 mps 756 mmHg 89%
    09:00 +6°C° 0 mm 2 mps 756 mmHg 87%
    10:00 +7°C° 0 mm 2 mps 756 mmHg 84%
    11:00 +8°C° 0 mm 2 mps 756 mmHg 80%
    12:00 +8°C° 0 mm 2 mps 755 mmHg 76%
    13:00 +9°C° 0 mm 3 mps 755 mmHg 72%
    14:00 +9°C° 0 mm 3 mps 755 mmHg 73%
    15:00 +9°C° 0 mm 2 mps 754 mmHg 74%
    16:00 +9°C° 0 mm 2 mps 754 mmHg 76%
    17:00 +8°C° 0 mm 3 mps 754 mmHg 79%
    18:00 +5°C° 0 mm 3 mps 754 mmHg 83%
    19:00 +4°C° 0 mm 3 mps 753 mmHg 87%
    20:00 +4°C° 0 mm 3 mps 753 mmHg 86%
    21:00 +3°C° 0 mm 3 mps 753 mmHg 85%
    22:00 +3°C° 0 mm 3 mps 752 mmHg 84%
    23:00 +4°C° 0 mm 2 mps 752 mmHg 83%

    Tomorrow, 19 February, Tuesday

    Time Temperature Precipitation Wind Pressure Humidity
    00:00 +3°C° 0 mm 2 mps 752 mmHg 82%
    01:00 +3°C° 0 mm 2 mps 752 mmHg 81%
    02:00 +3°C° 0 mm 2 mps 751 mmHg 81%
    03:00 +2°C° 0 mm 2 mps 751 mmHg 81%
    04:00 +2°C° 0 mm 2 mps 750 mmHg 82%
    05:00 +1°C° 0 mm 3 mps 750 mmHg 83%
    06:00 0°C° 0 mm 3 mps 750 mmHg 85%
    07:00 0°C° 0 mm 3 mps 749 mmHg 87%
    08:00 +1°C° 0 mm 4 mps 749 mmHg 79%
    09:00 +3°C° 0 mm 4 mps 749 mmHg 72%
    10:00 +5°C° 0 mm 5 mps 749 mmHg 64%
    11:00 +6°C° 0 mm 5 mps 748 mmHg 61%
    12:00 +7°C° 0 mm 6 mps 748 mmHg 58%
    13:00 +8°C° 0 mm 6 mps 748 mmHg 55%
    14:00 +8°C° 0 mm 5 mps 748 mmHg 58%
    15:00 +8°C° 0 mm 5 mps 747 mmHg 60%
    16:00 +8°C° 0 mm 4 mps 747 mmHg 63%
    17:00 +7°C° 0.1 mm 4 mps 747 mmHg 69%
    18:00 +6°C° 0.1 mm 5 mps 748 mmHg 74%
    19:00 +5°C° 0.1 mm 5 mps 748 mmHg 80%
    20:00 +5°C° 0.2 mm 4 mps 748 mmHg 83%
    21:00 +5°C° 0.2 mm 4 mps 748 mmHg 87%
    22:00 +5°C° 0.2 mm 4 mps 748 mmHg 90%
    23:00 +4°C° 0 mm 4 mps 748 mmHg 89%

    Day after tomorrow, 20 February, Wednesday

    Time Temperature Precipitation Wind Pressure Humidity
    00:00 +4°C° 0 mm 4 mps 748 mmHg 89%
    01:00 +2°C° 0 mm 5 mps 749 mmHg 88%
    02:00 +2°C° 0 mm 5 mps 749 mmHg 88%
    03:00 +2°C° 0 mm 5 mps 749 mmHg 89%
    04:00 +2°C° 0 mm 5 mps 749 mmHg 89%
    05:00 +1°C° 0 mm 5 mps 749 mmHg 90%
    06:00 +1°C° 0 mm 5 mps 749 mmHg 91%
    07:00 +1°C° 0 mm 5 mps 750 mmHg 92%
    08:00 +1°C° 0 mm 6 mps 750 mmHg 87%
    09:00 +2°C° 0 mm 6 mps 751 mmHg 83%
    10:00 +2°C° 0 mm 6 mps 751 mmHg 78%
    11:00 +3°C° 0 mm 7 mps 751 mmHg 76%
    12:00 +3°C° 0 mm 7 mps 751 mmHg 74%
    13:00 +4°C° 0 mm 7 mps 752 mmHg 72%
    14:00 +4°C° 0.1 mm 7 mps 752 mmHg 74%
    15:00 +4°C° 0.1 mm 7 mps 752 mmHg 75%
    16:00 +4°C° 0.1 mm 6 mps 752 mmHg 77%
    17:00 +3°C° 0.1 mm 6 mps 752 mmHg 78%
    18:00 +3°C° 0.1 mm 6 mps 753 mmHg 80%
    19:00 +2°C° 0.1 mm 5 mps 753 mmHg 81%
    20:00 +2°C° 0 mm 5 mps 753 mmHg 83%
    21:00 +2°C° 0 mm 5 mps 753 mmHg 84%
    22:00 +3°C° 0 mm 4 mps 753 mmHg 86%
    23:00 +4°C° 0.1 mm 4 mps 753 mmHg 87%

    21 February, Thursday

    Time Temperature Precipitation Wind Pressure Humidity
    00:00 +3°C° 0.1 mm 5 mps 753 mmHg 88%
    01:00 +3°C° 0.1 mm 5 mps 753 mmHg 89%
    02:00 +3°C° 0.2 mm 5 mps 753 mmHg 89%
    03:00 +3°C° 0.2 mm 5 mps 753 mmHg 90%
    04:00 +2°C° 0.2 mm 5 mps 752 mmHg 91%
    05:00 +2°C° 0.2 mm 5 mps 752 mmHg 91%
    06:00 +2°C° 0.2 mm 5 mps 752 mmHg 91%
    07:00 +2°C° 0.2 mm 5 mps 752 mmHg 91%
    08:00 +3°C° 1.1 mm 5 mps 752 mmHg 91%
    09:00 +3°C° 1.1 mm 5 mps 752 mmHg 92%
    10:00 +4°C° 1.1 mm 4 mps 752 mmHg 92%
    11:00 +4°C° 0.4 mm 4 mps 752 mmHg 92%
    12:00 +4°C° 0.4 mm 4 mps 752 mmHg 91%
    13:00 +5°C° 0.4 mm 4 mps 752 mmHg 91%
    14:00 +5°C° 0 mm 4 mps 753 mmHg 91%
    15:00 +5°C° 0 mm 4 mps 753 mmHg 92%
    16:00 +5°C° 0 mm 3 mps 753 mmHg 92%
    17:00 +5°C° 0 mm 3 mps 754 mmHg 93%
    18:00 +5°C° 0 mm 3 mps 754 mmHg 94%
    19:00 +5°C° 0 mm 2 mps 755 mmHg 95%
    20:00 +4°C° 0 mm 3 mps 756 mmHg 95%
    21:00 +3°C° 0 mm 3 mps 756 mmHg 95%
    22:00 +3°C° 0 mm 3 mps 757 mmHg 95%
    23:00 +2°C° 0 mm 3 mps 758 mmHg 89%

    22 February, Friday

    Time Temperature Precipitation Wind Pressure Humidity
    00:00 +2°C° 0 mm 3 mps 759 mmHg 84%
    01:00 +1°C° 0 mm 3 mps 759 mmHg 79%
    02:00 +1°C° 0 mm 3 mps 760 mmHg 75%
    03:00 0°C° 0 mm 3 mps 761 mmHg 70%
    04:00 -1°C° 0 mm 3 mps 761 mmHg 66%
    05:00 -1°C° 0 mm 3 mps 762 mmHg 65%
    06:00 -2°C° 0 mm 3 mps 763 mmHg 64%
    07:00 -2°C° 0 mm 3 mps 764 mmHg 63%
    08:00 -2°C° 0 mm 3 mps 765 mmHg 58%
    09:00 -1°C° 0 mm 3 mps 765 mmHg 53%
    10:00 0°C° 0 mm 3 mps 766 mmHg 48%
    11:00 +1°C° 0 mm 3 mps 766 mmHg 45%
    12:00 +1°C° 0 mm 3 mps 767 mmHg 41%
    13:00 +2°C° 0 mm 3 mps 767 mmHg 38%
    14:00 +3°C° 0 mm 2 mps 768 mmHg 38%
    15:00 +3°C° 0 mm 2 mps 768 mmHg 39%
    16:00 +3°C° 0 mm 2 mps 768 mmHg 40%
    17:00 +2°C° 0 mm 2 mps 769 mmHg 44%
    18:00 +1°C° 0 mm 2 mps 769 mmHg 47%
    19:00 -1°C° 0 mm 2 mps 769 mmHg 51%
    20:00 -1°C° 0 mm 2 mps 770 mmHg 52%
    21:00 -1°C° 0 mm 2 mps 770 mmHg 53%
    22:00 -2°C° 0 mm 2 mps 770 mmHg 54%
    23:00 -2°C° 0 mm 2 mps 770 mmHg 55%

    23 February, Saturday

    Time Temperature Precipitation Wind Pressure Humidity
    00:00 -2°C° 0 mm 2 mps 770 mmHg 55%
    01:00 -2°C° 0 mm 3 mps 770 mmHg 56%
    02:00 -2°C° 0 mm 3 mps 770 mmHg 56%
    03:00 -2°C° 0 mm 3 mps 770 mmHg 57%
    04:00 -1°C° 0 mm 2 mps 769 mmHg 57%
    05:00 -1°C° 0 mm 3 mps 769 mmHg 58%
    06:00 -2°C° 0 mm 3 mps 769 mmHg 59%
    07:00 -2°C° 0 mm 3 mps 769 mmHg 60%
    08:00 0°C° 0 mm 3 mps 768 mmHg 57%
    09:00 0°C° 0 mm 4 mps 768 mmHg 54%
    10:00 +1°C° 0 mm 5 mps 768 mmHg 51%
    11:00 +3°C° 0 mm 5 mps 767 mmHg 55%
    12:00 +5°C° 0 mm 5 mps 767 mmHg 59%
    13:00 +5°C° 0 mm 6 mps 766 mmHg 63%
    14:00 +6°C° 0 mm 5 mps 766 mmHg 69%
    15:00 +6°C° 0 mm 5 mps 765 mmHg 74%
    16:00 +5°C° 0 mm 5 mps 765 mmHg 80%
    17:00 +5°C° 0 mm 4 mps 765 mmHg 84%
    18:00 +4°C° 0 mm 4 mps 764 mmHg 88%
    19:00 +4°C° 0 mm 4 mps 764 mmHg 92%
    20:00 +3°C° 0 mm 4 mps 764 mmHg 93%
    21:00 +3°C° 0 mm 4 mps 764 mmHg 93%
    22:00 +3°C° 0 mm 4 mps 764 mmHg 94%
    23:00 +3°C° 0 mm 4 mps 763 mmHg 94%
    Show more